Location: Kapuskasing
(49.3803°N, 82.4001°W)
Time: 11:18:16
(UTC-04:00)

RS-44 - Pass Details

Date: 22 March 2026
Orbit: 1175 x 1510 km, 82.5° (Epoch: 11 April)

Event Time Altitude Azimuth Distance (km) Brightness Sun altitude
Rises 05:40:06 0° 340° (NNW) 4,489 ? -17.9°
Reaches altitude 10° 05:44:26 10° 319° (NW) 3,566 ? -17.2°
Maximum altitude 05:48:44 15° 289° (WNW) 3,220 ? -16.6°
Enters shadow 05:49:41 15° 281° (WNW) 3,247 ? -16.4°
